| time (UTC) | temp F | wind direction | speed MPH | gust MPH | rain 1hr in | rain 24hr in | rain mn in | humidity % | barometer mb |
| 20260904073537 | 67 | 119 | 8.0 | 14.0 | 0.00 | 0.00 | 0.00 | 20 | 1013.6 |
| 20260904072537 | 67 | 133 | 8.0 | 18.0 | 0.00 | 0.00 | 0.00 | 20 | 1013.5 |
| 20260904071538 | 68 | 143 | 11.0 | 19.0 | 0.00 | 0.00 | 0.00 | 20 | 1013.4 |
| 20260904070537 | 68 | 153 | 14.0 | 21.0 | 0.00 | 0.00 | 0.00 | 20 | 1013.3 |
| 20260904065538 | 69 | 147 | 15.0 | 24.0 | 0.00 | 0.00 | 0.00 | 20 | 1013.2 |
| 20260904064536 | 69 | 145 | 11.0 | 30.0 | 0.00 | 0.00 | 0.00 | 19 | 1013.2 |
| 20260904063537 | 69 | 197 | 19.0 | 33.0 | 0.00 | 0.00 | 0.00 | 19 | 1013.0 |
| 20260904062536 | 69 | 190 | 21.0 | 29.0 | 0.00 | 0.00 | 0.00 | 19 | 1013.0 |
| 20260904061537 | 69 | 141 | 17.0 | 26.0 | 0.00 | 0.00 | 0.00 | 20 | 1013.0 |
| 20260904060537 | 70 | 204 | 23.0 | 33.0 | 0.00 | 0.00 | 0.00 | 20 | 1012.8 |
| 20260904055536 | 70 | 185 | 18.0 | 34.0 | 0.00 | 0.00 | 0.00 | 20 | 1013.0 |
| 20260904054537 | 69 | 165 | 16.0 | 27.0 | 0.00 | 0.00 | 0.00 | 21 | 1013.1 |
| 20260904053537 | 70 | 177 | 14.0 | 35.0 | 0.00 | 0.00 | 0.00 | 21 | 1013.1 |
| 20260904052538 | 70 | 175 | 20.0 | 38.0 | 0.00 | 0.00 | 0.00 | 21 | 1013.2 |
| 20260904051537 | 70 | 189 | 16.0 | 27.0 | 0.00 | 0.00 | 0.00 | 21 | 1013.1 |
| 20260904050538 | 70 | 195 | 15.0 | 27.0 | 0.00 | 0.00 | 0.00 | 21 | 1013.4 |
| 20260904045537 | 70 | 156 | 11.0 | 25.0 | 0.00 | 0.00 | 0.00 | 20 | 1013.4 |
| 20260904044537 | 70 | 164 | 18.0 | 26.0 | 0.00 | 0.00 | 0.00 | 19 | 1013.4 |
| 20260904043538 | 70 | 169 | 15.0 | 26.0 | 0.00 | 0.00 | 0.00 | 19 | 1013.5 |
| 20260904042539 | 70 | 184 | 12.0 | 29.0 | 0.00 | 0.00 | 0.00 | 18 | 1013.5 |
| 20260904041537 | 70 | 174 | 10.0 | 20.0 | 0.00 | 0.00 | 0.00 | 18 | 1013.3 |
| 20260904040537 | 71 | 197 | 10.0 | 19.0 | 0.00 | 0.00 | 0.00 | 18 | 1013.3 |
| 20260904035537 | 71 | 174 | 7.0 | 17.0 | 0.00 | 0.00 | 0.00 | 18 | 1013.3 |
| 20260904034537 | 71 | 132 | 9.0 | 23.0 | 0.00 | 0.00 | 0.00 | 17 | 1013.1 |
| 20260904033541 | 71 | 135 | 13.0 | 26.0 | 0.00 | 0.00 | 0.00 | 17 | 1012.9 |
| 20260904032539 | 72 | 139 | 17.0 | 31.0 | 0.00 | 0.00 | 0.00 | 17 | 1012.8 |
| 20260904031539 | 72 | 158 | 15.0 | 25.0 | 0.00 | 0.00 | 0.00 | 17 | 1012.7 |
| 20260904030537 | 72 | 146 | 9.0 | 28.0 | 0.00 | 0.00 | 0.00 | 17 | 1012.8 |
| 20260904025537 | 72 | 166 | 12.0 | 24.0 | 0.00 | 0.00 | 0.00 | 17 | 1012.8 |
| 20260904024537 | 72 | 184 | 10.0 | 23.0 | 0.00 | 0.00 | 0.00 | 17 | 1012.6 |
| 20260904023538 | 72 | 148 | 13.0 | 25.0 | 0.00 | 0.00 | 0.00 | 17 | 1012.6 |
| 20260904022538 | 72 | 153 | 15.0 | 26.0 | 0.00 | 0.00 | 0.00 | 17 | 1012.6 |
| 20260904021537 | 73 | 159 | 13.0 | 24.0 | 0.00 | 0.00 | 0.00 | 17 | 1012.5 |
| 20260904020539 | 73 | 152 | 16.0 | 28.0 | 0.00 | 0.00 | 0.00 | 17 | 1012.2 |
| 20260904015537 | 73 | 192 | 20.0 | 29.0 | 0.00 | 0.00 | 0.00 | 16 | 1012.2 |
| 20260904014537 | 73 | 141 | 10.0 | 28.0 | 0.00 | 0.00 | 0.00 | 15 | 1012.1 |
| 20260904013538 | 74 | 162 | 13.0 | 21.0 | 0.00 | 0.00 | 0.00 | 14 | 1012.1 |
| 20260904012537 | 74 | 152 | 13.0 | 22.0 | 0.00 | 0.00 | 0.00 | 14 | 1012.0 |
| 20260904011537 | 74 | 140 | 15.0 | 28.0 | 0.00 | 0.00 | 0.00 | 12 | 1012.1 |
| 20260904010537 | 75 | 221 | 22.0 | 38.0 | 0.00 | 0.00 | 0.00 | 12 | 1012.1 |
| 20260904005538 | 76 | 159 | 27.0 | 39.0 | 0.00 | 0.00 | 0.00 | 11 | 1011.9 |
| 20260904004539 | 76 | 152 | 24.0 | 38.0 | 0.00 | 0.00 | 0.00 | 13 | 1012.2 |
| 20260904003538 | 76 | 130 | 17.0 | 41.0 | 0.00 | 0.00 | 0.00 | 13 | 1012.2 |
| 20260904002539 | 76 | 167 | 19.0 | 33.0 | 0.00 | 0.00 | 0.00 | 14 | 1012.2 |
| 20260904001537 | 76 | 136 | 18.0 | 32.0 | 0.00 | 0.00 | 0.00 | 14 | 1012.2 |
| 20260904000537 | 77 | 148 | 20.0 | 36.0 | 0.00 | 0.00 | 0.00 | 14 | 1012.3 |
| 20260903234537 | 77 | 156 | 14.0 | 37.0 | 0.00 | 0.00 | 0.00 | 15 | 1012.2 |
| 20260903233537 | 77 | 128 | 25.0 | 37.0 | 0.00 | 0.00 | 0.00 | 15 | 1012.2 |
| 20260903232537 | 78 | 182 | 15.0 | 42.0 | 0.00 | 0.00 | 0.00 | 15 | 1012.5 |
| 20260903231539 | 77 | 193 | 16.0 | 35.0 | 0.00 | 0.00 | 0.00 | 15 | 1012.4 |
| 20260903230538 | 77 | 143 | 20.0 | 38.0 | 0.00 | 0.00 | 0.00 | 15 | 1012.3 |
| 20260903225538 | 77 | 157 | 18.0 | 37.0 | 0.00 | 0.00 | 0.00 | 15 | 1012.5 |
| 20260903224537 | 78 | 185 | 15.0 | 30.0 | 0.00 | 0.00 | 0.00 | 16 | 1012.7 |
| 20260903223537 | 78 | 129 | 19.0 | 35.0 | 0.00 | 0.00 | 0.00 | 15 | 1012.6 |
| 20260903222539 | 78 | 137 | 25.0 | 40.0 | 0.00 | 0.00 | 0.00 | 15 | 1012.7 |
| 20260903221538 | 78 | 144 | 21.0 | 36.0 | 0.00 | 0.00 | 0.00 | 15 | 1013.1 |
| 20260903220538 | 78 | 167 | 15.0 | 35.0 | 0.00 | 0.00 | 0.00 | 15 | 1013.2 |
| 20260903215538 | 78 | 124 | 18.0 | 39.0 | 0.00 | 0.00 | 0.00 | 15 | 1013.1 |
| 20260903214538 | 76 | 154 | 15.0 | 43.0 | 0.00 | 0.00 | 0.00 | 15 | 1013.6 |
| 20260903212539 | 78 | 142 | 25.0 | 36.0 | 0.00 | 0.00 | 0.00 | 15 | 1013.5 |
| 20260903211538 | 77 | 132 | 24.0 | 36.0 | 0.00 | 0.00 | 0.00 | 15 | 1013.7 |
| 20260903205539 | 76 | 140 | 25.0 | 40.0 | 0.00 | 0.00 | 0.00 | 16 | 1013.9 |
| 20260903204633 | 76 | 190 | 18.0 | 40.0 | 0.00 | 0.00 | 0.00 | 16 | 1013.9 |
| 20260903204538 | 76 | 190 | 18.0 | 40.0 | 0.00 | 0.00 | 0.00 | 16 | 1013.9 |
| 20260903203538 | 75 | 166 | 25.0 | 42.0 | 0.00 | 0.00 | 0.00 | 16 | 1014.1 |
| 20260903202538 | 75 | 138 | 29.0 | 39.0 | 0.00 | 0.00 | 0.00 | 16 | 1014.0 |
| 20260903200538 | 75 | 156 | 22.0 | 38.0 | 0.00 | 0.00 | 0.00 | 15 | 1014.4 |
| 20260903195538 | 75 | 132 | 21.0 | 39.0 | 0.00 | 0.00 | 0.00 | 15 | 1014.2 |
| 20260903194538 | 74 | 135 | 26.0 | 42.0 | 0.00 | 0.00 | 0.00 | 15 | 1014.3 |
| 20260903193538 | 74 | 175 | 21.0 | 38.0 | 0.00 | 0.00 | 0.00 | 15 | 1014.6 |
| 20260903192538 | 74 | 137 | 25.0 | 38.0 | 0.00 | 0.00 | 0.00 | 14 | 1014.9 |
| 20260903191538 | 74 | 166 | 18.0 | 40.0 | 0.00 | 0.00 | 0.00 | 16 | 1014.3 |
| 20260903190538 | 74 | 188 | 13.0 | 40.0 | 0.00 | 0.00 | 0.00 | 16 | 1014.9 |
| 20260903185538 | 74 | 161 | 21.0 | 33.0 | 0.00 | 0.00 | 0.00 | 17 | 1015.1 |
| 20260903184538 | 74 | 167 | 21.0 | 36.0 | 0.00 | 0.00 | 0.00 | 17 | 1015.2 |
| 20260903183539 | 73 | 133 | 19.0 | 33.0 | 0.00 | 0.00 | 0.00 | 18 | 1015.3 |
| 20260903181538 | 72 | 152 | 28.0 | 37.0 | 0.00 | 0.00 | 0.00 | 18 | 1015.4 |
| 20260903174539 | 72 | 139 | 25.0 | 39.0 | 0.00 | 0.00 | 0.00 | 1015.3 | |
| 20260903173539 | 72 | 169 | 18.0 | 34.0 | 0.00 | 0.00 | 0.00 | 18 | 1015.5 |
| 20260903172538 | 72 | 202 | 16.0 | 35.0 | 0.00 | 0.00 | 0.00 | 18 | 1015.5 |
| 20260903171538 | 71 | 155 | 19.0 | 35.0 | 0.00 | 0.00 | 0.00 | 18 | 1015.4 |
| 20260903170538 | 71 | 203 | 26.0 | 43.0 | 0.00 | 0.00 | 0.00 | 19 | 1015.5 |
| 20260903165538 | 71 | 195 | 19.0 | 33.0 | 0.00 | 0.00 | 0.00 | 19 | 1015.5 |
| 20260903164539 | 71 | 176 | 19.0 | 35.0 | 0.00 | 0.00 | 0.00 | 19 | 1015.4 |
| 20260903163538 | 71 | 142 | 15.0 | 31.0 | 0.00 | 0.00 | 0.00 | 18 | 1015.4 |
| 20260903162538 | 71 | 130 | 18.0 | 27.0 | 0.00 | 0.00 | 0.00 | 18 | 1015.3 |
| 20260903161539 | 72 | 129 | 18.0 | 26.0 | 0.00 | 0.00 | 0.00 | 17 | 1015.4 |
| 20260903160539 | 71 | 162 | 10.0 | 22.0 | 0.00 | 0.00 | 0.00 | 18 | 1015.6 |
| 20260903155538 | 70 | 132 | 14.0 | 26.0 | 0.00 | 0.00 | 0.00 | 18 | 1015.6 |
| 20260903154538 | 70 | 126 | 21.0 | 28.0 | 0.00 | 0.00 | 0.00 | 17 | 1015.5 |
| 20260903153538 | 70 | 123 | 17.0 | 28.0 | 0.00 | 0.00 | 0.00 | 18 | 1015.4 |
| 20260903152539 | 70 | 117 | 20.0 | 24.0 | 0.00 | 0.00 | 0.00 | 17 | 1015.5 |
| 20260903151540 | 69 | 117 | 16.0 | 22.0 | 0.00 | 0.00 | 0.00 | 18 | 1015.6 |
| 20260903150539 | 69 | 109 | 14.0 | 18.0 | 0.00 | 0.00 | 0.00 | 18 | 1015.7 |
| 20260903144540 | 68 | 99 | 12.0 | 14.0 | 0.00 | 0.00 | 0.00 | 19 | 1015.8 |
| 20260903143539 | 67 | 120 | 11.0 | 14.0 | 0.00 | 0.00 | 0.00 | 19 | 1015.9 |
| 20260903141539 | 65 | 118 | 11.0 | 13.0 | 0.00 | 0.00 | 0.00 | 20 | 1015.7 |
| 20260903140542 | 65 | 125 | 11.0 | 14.0 | 0.00 | 0.00 | 0.00 | 19 | 1015.7 |
| 20260903135539 | 64 | 124 | 11.0 | 18.0 | 0.00 | 0.00 | 0.00 | 19 | 1015.7 |
| 20260903134539 | 64 | 126 | 11.0 | 14.0 | 0.00 | 0.00 | 0.00 | 20 | 1015.7 |
| 20260903133539 | 63 | 133 | 8.0 | 13.0 | 0.00 | 0.00 | 0.00 | 20 | 1015.7 |
| 20260903132539 | 63 | 132 | 10.0 | 14.0 | 0.00 | 0.00 | 0.00 | 20 | 1015.5 |
| 20260903131540 | 64 | 146 | 9.0 | 17.0 | 0.00 | 0.00 | 0.00 | 19 | 1015.4 |
| 20260903130539 | 65 | 140 | 9.0 | 20.0 | 0.00 | 0.00 | 0.00 | 19 | 1015.3 |
| 20260903124539 | 65 | 205 | 12.0 | 21.0 | 0.00 | 0.00 | 0.00 | 19 | 1015.4 |
| 20260903122539 | 63 | 199 | 10.0 | 15.0 | 0.00 | 0.00 | 0.00 | 19 | 1015.3 |
| 20260903121539 | 64 | 132 | 7.0 | 23.0 | 0.00 | 0.00 | 0.00 | 19 | 1015.4 |
| 20260903120539 | 63 | 144 | 7.0 | 14.0 | 0.00 | 0.00 | 0.00 | 19 | 1015.2 |
| 20260903115539 | 63 | 138 | 3.0 | 9.0 | 0.00 | 0.00 | 0.00 | 19 | 1015.2 |
| 20260903114539 | 63 | 165 | 3.0 | 13.0 | 0.00 | 0.00 | 0.00 | 19 | 1015.2 |
| 20260903113539 | 63 | 130 | 3.0 | 5.0 | 0.00 | 0.00 | 0.00 | 19 | 1015.2 |
| 20260903112539 | 63 | 129 | 3.0 | 5.0 | 0.00 | 0.00 | 0.00 | 19 | 1015.3 |
| 20260903111540 | 63 | 129 | 2.0 | 5.0 | 0.00 | 0.00 | 0.00 | 19 | 1015.3 |
| 20260903104542 | 64 | 138 | 6.0 | 15.0 | 0.00 | 0.00 | 0.00 | 18 | 1015.5 |
| 20260903103539 | 64 | 135 | 4.0 | 11.0 | 0.00 | 0.00 | 0.00 | 18 | 1015.5 |
| 20260903101539 | 65 | 172 | 11.0 | 20.0 | 0.00 | 0.00 | 0.00 | 18 | 1015.4 |
| 20260903094539 | 64 | 0 | 0.0 | 10.0 | 0.00 | 0.00 | 0.00 | 17 | 1015.6 |
| 20260903092540 | 65 | 141 | 3.0 | 8.0 | 0.00 | 0.00 | 0.00 | 16 | 1015.6 |
| 20260903084539 | 66 | 196 | 4.0 | 10.0 | 0.00 | 0.00 | 0.00 | 16 | 1015.7 |
| 20260903083539 | 66 | 155 | 5.0 | 13.0 | 0.00 | 0.00 | 0.00 | 15 | 1015.7 |
| 20260903082539 | 66 | 186 | 8.0 | 13.0 | 0.00 | 0.00 | 0.00 | 15 | 1015.7 |
| 20260903080539 | 67 | 158 | 7.0 | 14.0 | 0.00 | 0.00 | 0.00 | 15 | 1015.6 |
| 20260903075540 | 67 | 178 | 11.0 | 16.0 | 0.00 | 0.00 | 0.00 | 14 | 1015.7 |
| 20260903074539 | 67 | 203 | 9.0 | 12.0 | 0.00 | 0.00 | 0.00 | 14 | 1015.6 |